TimeCDT,TemperatureF,Dew PointF,Humidity,Sea Level PressureIn,VisibilityMPH,Wind Direction,Wind SpeedMPH,Gust SpeedMPH,PrecipitationIn,Events,Conditions,WindDirDegrees,DateUTC
12:53 AM,60.1,57.0,90,29.96,10.0,NNE,5.8,-,0.01,,Mostly Cloudy,20,2012-09-07 05:53:00
1:53 AM,59.0,55.0,87,29.96,10.0,NE,4.6,-,0.03,,Overcast,40,2012-09-07 06:53:00
2:53 AM,57.9,54.0,87,29.94,10.0,NNE,3.5,-,0.02,Rain,Light Rain,30,2012-09-07 07:53:00
3:53 AM,57.0,54.0,89,29.94,10.0,North,4.6,-,0.00,,Overcast,350,2012-09-07 08:53:00
4:53 AM,57.0,54.0,89,29.96,10.0,North,5.8,-,N/A,,Overcast,350,2012-09-07 09:53:00
5:53 AM,57.0,53.1,87,29.98,10.0,NNW,5.8,-,N/A,,Overcast,340,2012-09-07 10:53:00
6:53 AM,54.0,52.0,93,30.01,10.0,NNW,4.6,-,N/A,,Clear,330,2012-09-07 11:53:00
7:53 AM,55.0,52.0,89,30.04,10.0,NW,6.9,-,N/A,,Partly Cloudy,320,2012-09-07 12:53:00
8:41 AM,57.2,53.6,88,30.02,10.0,NW,8.1,-,N/A,,Partly Cloudy,320,2012-09-07 13:41:00
8:53 AM,57.9,53.1,84,30.04,10.0,NNW,11.5,-,N/A,,Clear,330,2012-09-07 13:53:00
9:53 AM,61.0,53.1,75,30.04,10.0,NNW,9.2,-,N/A,,Mostly Cloudy,340,2012-09-07 14:53:00
10:53 AM,61.0,50.0,67,30.04,10.0,North,11.5,-,N/A,,Scattered Clouds,350,2012-09-07 15:53:00
11:53 AM,64.9,46.0,50,30.03,10.0,NNW,13.8,23.0,N/A,,Clear,340,2012-09-07 16:53:00
12:53 PM,66.0,44.1,45,30.02,10.0,NW,19.6,27.6,N/A,,Mostly Cloudy,320,2012-09-07 17:53:00
1:53 PM,64.0,44.1,48,30.03,10.0,NW,11.5,20.7,0.00,,Overcast,320,2012-09-07 18:53:00
2:53 PM,64.0,42.1,45,30.03,10.0,NW,13.8,27.6,N/A,,Mostly Cloudy,320,2012-09-07 19:53:00
3:53 PM,63.0,42.1,46,30.03,10.0,NW,19.6,23.0,N/A,,Overcast,310,2012-09-07 20:53:00
4:53 PM,63.0,42.1,46,30.04,10.0,NNW,12.7,23.0,N/A,,Overcast,330,2012-09-07 21:53:00
5:53 PM,63.0,42.1,46,30.05,10.0,NNW,11.5,-,N/A,,Overcast,330,2012-09-07 22:53:00
6:53 PM,62.1,43.0,50,30.06,10.0,NNW,9.2,-,N/A,,Overcast,340,2012-09-07 23:53:00
7:53 PM,60.1,44.1,55,30.06,10.0,NNW,8.1,-,N/A,,Overcast,330,2012-09-08 00:53:00
8:53 PM,57.0,45.0,64,30.07,10.0,NNW,4.6,-,N/A,,Mostly Cloudy,330,2012-09-08 01:53:00
9:53 PM,52.0,45.0,77,30.08,10.0,NW,5.8,-,N/A,,Clear,320,2012-09-08 02:53:00
10:53 PM,51.1,44.1,77,30.08,10.0,NW,5.8,-,N/A,,Clear,320,2012-09-08 03:53:00
11:53 PM,48.0,43.0,83,30.08,10.0,WNW,5.8,-,N/A,,Clear,300,2012-09-08 04:53:00